Powrót do katalogu

COSMOS 2146

AktywnyNawigacjaPO
NORAD 21302·PAYLOAD·🇷🇺 Russia

Wystrzelony May 16, 1991 z Plesetsk Cosmodrome

Loading…

Następne Przeloty (najbliższe 24 godziny)

TLE

ŚwieżeSource: Space-Track

Epoka: Sep 14, 2026, 22:16 UTC

1 21302U 91033D   26257.92821689  .00000003  00000-0 -43495-4 0  9994
2 21302  82.5721 236.8437 0015839 180.7343 179.3729 12.64555170630665

Śledź COSMOS 2146 w czasie rzeczywistym z AllMySat

Download on the App Store